Location: �bnet
(46.9957°N, 8.4908°E)
Time: 00:46:10
(UTC+00:00)

Cosmos 1707 Rocket - Pass Details

Date: 11 May 2021
Orbit: 605 x 631 km, 82.5° (Epoch: 18 June)

Event Time Altitude Azimuth Distance (km) Brightness Sun altitude
Exits shadow 22:32:58 36° 255° (WSW) 978 4.5 -23.9°
Maximum altitude 22:33:50 41° 285° (WNW) 907 4.5 -24.0°
Drops below altitude 10° 22:38:02 10° 356° (N) 1,999 7.2 -24.1°
Sets 22:40:24 0° 4° (N) 2,915 8.3 -24.2°
